{"data":{"norad_id":56892,"epoch":"2026-09-19T20:59:14.754048Z","epoch_age_seconds":171862,"freshness":"FRESH","line1":"1 56892U 23083S   26262.87447632 -.00000339  00000+0 -27907-5 0  9991","line2":"2 56892  43.0044  72.3592 0002182 258.9986 101.0621 15.27572361181285","mean_motion":15.27572361,"eccentricity":0.0002182,"inclination_deg":43.0044,"raan_deg":72.3592,"arg_perigee_deg":258.9986,"mean_anomaly_deg":101.0621,"bstar":-2.7907e-6,"rev_number":18128,"period_min":94.267220117633,"perigee_km":481.57485425183,"apogee_km":484.56908584636,"semimajor_km":6861.2089700491,"source":"CELESTRAK","updated_at":"2026-09-21T09:00:33.522664Z"}}